Regional Weather Roundup
Issued by NWS

Home | Current Version | Previous Version | Text Only | Print | Product List | Glossary Off
Versions: 1 2 3 4 5 6 7 8 9 10 11 12 13 14 15 16 17 18 19 20 21 22 23 24 25 26 27 28 29 30 31 32 33 34 35 36 37 38 39 40 41 42 43 44 45 46 47 48 49 50

000
ASUS45 KCYS 241110
RWRWY

WYOMING REGIONAL WEATHER ROUNDUP
NATIONAL WEATHER SERVICE CHEYENNE WY
400 AM MST MON NOV 24 2014

NOTE:  "FAIR" INDICATES FEW OR NO CLOUDS BELOW 12,000 FEET
WITH NO SIGNIFICANT WEATHER AND/OR OBSTRUCTIONS TO VISIBILITY.

WYZ001-241200-
YELLOWSTONE NATIONAL PARK

CITY           SKY/WX    TMP DP  RH WIND       PRES   REMARKS
LK YELLOWSTONE   N/A     17  12  80 W7        29.94R WCI   8
W YELLOWSTONE  NOT AVBL

$$
WYZ002>013-054>058-071-098>099-241200-
NORTHERN WYOMING

CITY           SKY/WX    TMP DP  RH WIND       PRES   REMARKS
JACKSON        CLOUDY    27  18  69 N5        29.99R WCI  21
CODY           MOCLDY    34  16  47 NW3       29.86R
GREYBULL       CLOUDY    27  20  75 E6        29.88R WCI  20
WORLAND        PTCLDY    18  13  80 VRB5      29.87R WCI  11
SHERIDAN       CLOUDY    33  22  63 VRB7      29.83R WCI  27
BUFFALO        MOCLDY    29  18  63 NW6       29.80S WCI  23
GILLETTE       NOT AVBL
HULETT           N/A    N/A N/A N/A MISG        N/A
NEWCASTLE      FAIR      25  18  74 N9        29.78S WCI  15

$$
WYZ014>020-022>026-101>103-241200-
CENTRAL WYOMING

CITY           SKY/WX    TMP DP  RH WIND       PRES   REMARKS
BIG PINEY      LGT SNOW  34  17  50 NW18      29.97F WCI  23
PINEDALE       CLOUDY    18  16  93 CALM      29.97S
DUBOIS         FAIR      23  14  68 NW21      29.88R WCI   8
LANDER         NOT AVBL
RIVERTON       MOCLDY    22  12  65 W12       29.86R WCI  10
CASPER         MOCLDY    26  13  57 SW15G22   29.83S WCI  14
DOUGLAS        MOCLDY   N/A N/A N/A NW10      29.82R

$$
WYZ021-027>030-104>119-241200-
SOUTHERN WYOMING

CITY           SKY/WX    TMP DP  RH WIND       PRES   REMARKS
EVANSTON       LGT SNOW  22  21  96 SW23G31   30.04F FOG     WCI   6
KEMMERER       LGT SNOW  23  21  93 W21       30.01S WCI   8
FORT BRIDGER   LGT SNOW  25  22  88 W26G35    30.06S WCI   9
ROCK SPRINGS   CLOUDY    23  18  81 W20G31    29.98F WCI   8
DIXON          FLURRIES  23  15  71 SW17      30.01F WCI  10
RAWLINS        CLOUDY    23  16  74 W25G35    29.89S WCI   7
SARATOGA       CLOUDY    25  18  74 W28G38    29.89F WCI   8
LARAMIE        MOCLDY    20   9  62 W18       29.81F WCI   5
CHEYENNE       CLOUDY    27   9  46 W18G26    29.80S WCI  14
TORRINGTON     MOCLDY    25  15  66 NW9       29.81F WCI  15
PINE BLUFFS    FAIR      30  14  51 NW24G35   29.80F WCI  16

$$



USA.gov is the U.S. government's official web portal to all federal, state and local government web resources and services.